Regional Weather Roundup
Issued by NWS Goodland, KS

Home | Current Version | Previous Version | Graphics & Text | Print | Product List | Glossary On
Versions: 1 2 3 4 5 6 7 8 9 10 11 12 13 14 15 16 17 18 19 20 21 22 23 24 25 26 27 28 29 30 31 32 33 34 35 36 37 38 39 40 41 42 43 44 45 46 47 48 49 50
000
ASUS43 KGLD 230859
RWRGLD

GOODLAND FORECAST AREA HOURLY WEATHER ROUNDUP
NATIONAL WEATHER SERVICE GOODLAND KS
200 AM MST FRI FEB 23 2018

...OFFICIAL OBSERVATIONS...

CITY           SKY/WX    TMP DP  RH WIND       PRES   REMARKS
GOODLAND KS    CLOUDY    22  22 100 SW6       30.12S FOG
HILL CITY KS   FOG       23  23 100 NW5       30.20S VSB 1
IMPERIAL NEB   CLOUDY    19  17  92 CALM      30.12F
MCCOOK NEB     FOG       20  20 100 W8        30.17S VSB 3/4
AKRON CO       CLEAR     17  17 100 S6        30.05F
BURLINGTON CO  FOG       21  19  92 SW6       30.10S VSB 1/2
LIMON CO       CLEAR      5   3  91 CALM      30.04F
$$

...UNOFFICIAL OBSERVATIONS...

CITY           SKY/WX    TMP DP  RH WIND       PRES   REMARKS
NORTON KS      CLEAR     18  14  86 W3        30.17
SHARON SPRINGS   N/A     24  22  92 N5          N/A
KIT CARSON CO    N/A     19  16  88 CALM        N/A
YUMA CO        FAIR      18  14  86 SW7       30.08F
$$




USA.gov is the U.S. government's official web portal to all federal, state and local government web resources and services.